Regional Weather Roundup
Issued by NWS

Home | Current Version | Previous Version | Text Only | Print | Product List | Glossary On
Versions: 1 2 3 4 5 6 7 8 9 10 11 12 13 14 15 16 17 18 19 20 21 22 23 24 25 26 27 28 29 30 31 32 33 34
243
ASPQ40 PGUM 251213
RWRPQ
WEATHER ROUNDUP FOR THE MARIANAS AND MICRONESIA
NATIONAL WEATHER SERVICE TIYAN GU
1000 PM CHST SAT FEB 25 2017

GUZ001>004-251300-
MARIANA ISLANDS-

CITY           SKY/WX    TMP DP  RH WIND       PRES   REMARKS
GUAM AIRPORT   PTCLDY    81  73  78 E10       29.92S
ANDERSEN AFB   PTCLDY    79  72  78 E16       29.93S
ROTA AIRPORT   NOT AVBL
TINIAN AP      NOT AVBL
SAIPAN AP      PTCLDY    79  75  89 E15       29.92R

$$

PMZ161-251300-
REPUBLIC OF PALAU-

CITY           SKY/WX    TMP DP  RH WIND       PRES   REMARKS
KOROR AP       CLOUDY    79  75  89 NE12      29.79S
KOROR WSO      CLOUDY    79  75  89 NE7       29.80R

$$

PMZ171>174-251300-
FEDERATED STATES OF MICRONESIA-

CITY           SKY/WX    TMP DP  RH WIND       PRES   REMARKS
YAP AIRPORT    CLOUDY    79  77  94 VRB6      29.83R
CHUUK AP       MOCLDY    82  77  83 NE10      29.80R HX  91
POHNPEI AP     MOCLDY    82  77  83 E17       29.77S HX  91
POHNPEI WSO    CLOUDY    82  75  78 NE9       29.81S
KOSRAE AP      LGT RAIN  81  77  89 E13       29.78R

$$

PMZ181-251300-
REPUBLIC OF THE MARSHALL ISLANDS-

CITY           SKY/WX    TMP DP  RH WIND       PRES   REMARKS
KWAJALEIN AP   PTCLDY    82  73  74 E21G29    29.85S
MAJURO AP      NOT AVBL
MAJURO WSO     MOCLDY    82  75  78 NE10      29.82F

$$





USA.gov is the U.S. government's official web portal to all federal, state and local government web resources and services.